Change the Weather History Date:

Friday, November 2, 2012

  Actual Average Record
Temperature  
Mean Temperature 49 °F 41 °F  
Max Temperature 53 °F 51 °F 65 °F (1931)
Min Temperature 45 °F 31 °F 7 °F (2002)
Degree Days  
Heating Degree Days 16 24  
Month to date heating degree days 31 47  
Since 1 July heating degree days 567 707  
Cooling Degree Days 0 0  
Month to date cooling degree days 0 0  
Year to date cooling degree days 629 665  
Moisture  
Dew Point 44 °F    
Average Humidity 82    
Maximum Humidity 93    
Minimum Humidity 71    
Precipitation  
Precipitation 0.01 in 0.06 in 0.47 in (1948)
Month to date precipitation 0.19 0.12  
Year to date precipitation 12.29 10.82  
Sea Level Pressure  
Sea Level Pressure 30.08 in    
Wind  
Wind Speed 2 mph (South)    
Max Wind Speed 12 mph    
Max Gust Speed 28 mph    
Visibility 10 miles    
Events Rain    
T = Trace of Precipitation, MM = Missing Value Source: NWS Daily Summary

Daily Weather History Graph

Daily Weather History Graph

Search for Another Location

Airport or City:

Trip Planner

Search our weather history database for the weather conditions in past years. The results will help you decide how hot, cold, wet, or windy it might be!

Date:

Astronomy

Nov. 02, 2012 Rise Set
Actual Time 7:46 AM PDT 5:35 PM PDT
Civil Twilight 7:13 AM PDT 6:08 PM PDT
Nautical Twilight 6:36 AM PDT 6:46 PM PDT
Astronomical Twilight 6:00 AM PDT 7:22 PM PDT
Moon 8:17 PM PDT (11/2) 11:21 AM PDT (11/2)
Length of Visible Light 10h 55m
Length of Day
9h 49m
Waning Gibbous, 86% of the Moon is Illuminated
Nov 2
Waning Gibbous
Nov 6
Last Quarter
Nov 13
New
Nov 20
First Quarter
Nov 28
Full

Hourly Weather History & Observations

Time (PDT) Temp. Windchill Dew Point Humidity Pressure Visibility Wind Dir Wind Speed Gust Speed Precip Events Conditions
12:03 AM 44.6 °F 43.1 °F 42.8 °F 93% 30.01 in 10.0 mi WNW 3.5 mph - N/A   Mostly Cloudy
12:53 AM 46.0 °F - 43.0 °F 89% 30.04 in 10.0 mi Calm Calm - N/A   Overcast
1:09 AM 46.4 °F 45.2 °F 44.6 °F 93% 30.03 in 10.0 mi NNW 3.5 mph - N/A   Overcast
1:53 AM 46.0 °F - 44.1 °F 93% 30.05 in 10.0 mi Calm Calm - N/A   Overcast
2:02 AM 46.4 °F - 44.6 °F 93% 30.04 in 10.0 mi Calm Calm - N/A   Overcast
2:32 AM 44.6 °F - 42.8 °F 93% 30.04 in 9.0 mi Calm Calm - N/A   Overcast
2:53 AM 45.0 °F - 43.0 °F 93% 30.06 in 10.0 mi Calm Calm - N/A   Overcast
3:53 AM 46.0 °F - 44.1 °F 93% 30.06 in 10.0 mi Calm Calm - N/A   Overcast
4:53 AM 46.0 °F - 44.1 °F 93% 30.07 in 10.0 mi Calm Calm - N/A   Overcast
5:53 AM 46.9 °F - 44.1 °F 90% 30.09 in 10.0 mi Calm Calm - N/A   Overcast
6:53 AM 46.9 °F - 44.1 °F 90% 30.09 in 10.0 mi Calm Calm - N/A   Overcast
7:53 AM 46.0 °F - 44.1 °F 93% 30.11 in 8.0 mi Calm Calm - N/A   Overcast
8:53 AM 46.9 °F - 45.0 °F 93% 30.12 in 10.0 mi Calm Calm - N/A   Overcast
9:28 AM 48.2 °F - 44.6 °F 87% 30.10 in 10.0 mi Calm Calm - N/A   Overcast
9:53 AM 48.0 °F - 44.1 °F 86% 30.12 in 10.0 mi Calm Calm - N/A   Overcast
10:53 AM 48.9 °F - 45.0 °F 86% 30.14 in 10.0 mi Calm Calm - N/A   Overcast
11:15 AM 48.2 °F - 44.6 °F 87% 30.12 in 10.0 mi SSE 4.6 mph - N/A   Overcast
11:45 AM 50.0 °F - 44.6 °F 82% 30.12 in 10.0 mi SSE 4.6 mph - N/A   Overcast
11:53 AM 50.0 °F - 46.0 °F 86% 30.14 in 10.0 mi SSE 4.6 mph - N/A   Overcast
12:25 PM 51.8 °F - 46.4 °F 82% 30.11 in 10.0 mi SSE 4.6 mph - N/A   Mostly Cloudy
12:53 PM 51.1 °F - 45.0 °F 80% 30.12 in 10.0 mi South 3.5 mph - N/A   Scattered Clouds
1:29 PM 51.8 °F - 46.4 °F 82% 30.10 in 10.0 mi Variable 5.8 mph - N/A   Overcast
1:53 PM 52.0 °F - 45.0 °F 77% 30.11 in 10.0 mi SSW 6.9 mph - N/A   Overcast
2:09 PM 53.6 °F - 44.6 °F 72% 30.09 in 10.0 mi SSW 5.8 mph - N/A   Overcast
2:53 PM 53.1 °F - 45.0 °F 74% 30.10 in 10.0 mi South 6.9 mph - N/A   Overcast
3:39 PM 53.6 °F - 44.6 °F 72% 30.08 in 10.0 mi SSW 9.2 mph - N/A   Overcast
3:53 PM 53.1 °F - 44.1 °F 71% 30.09 in 10.0 mi SSW 6.9 mph - N/A   Overcast
4:53 PM 52.0 °F - 44.1 °F 74% 30.09 in 10.0 mi South 4.6 mph - N/A   Overcast
5:53 PM 50.0 °F - 44.1 °F 80% 30.09 in 10.0 mi SE 3.5 mph - N/A   Partly Cloudy
6:53 PM 50.0 °F - 44.1 °F 80% 30.09 in 10.0 mi Calm Calm - N/A   Overcast
7:53 PM 45.0 °F - 42.1 °F 90% 30.07 in 10.0 mi Calm Calm - N/A   Mostly Cloudy
8:53 PM 46.9 °F - 44.1 °F 90% 30.07 in 10.0 mi Calm Calm - N/A   Overcast
9:53 PM 48.0 °F - 44.1 °F 86% 30.08 in 10.0 mi Calm Calm - N/A   Overcast
10:53 PM 46.9 °F - 44.1 °F 90% 30.07 in 10.0 mi Calm Calm - 0.01 in Rain Light Rain
11:53 PM 46.9 °F - 44.1 °F 90% 30.06 in 10.0 mi SW 4.6 mph - 0.00 in   Overcast